Location: Arguenos
(42.9707°N, 0.7246°E)
Time: 01:49:48
(UTC+00:00)

Daily predictions for brighter satellites

Satellite Brightness Start Highest point End
(mag) Time Altitude Azimuth Time Altitude Azimuth Time Altitude Azimuth
ATLAS 3B R/B 4.3 03:30:35 24° NNE 03:31:31 25° NNE 03:37:13 10° E
Lacrosse 4 Rocket 4.5 03:38:11 14° E 03:38:11 14° E 03:39:01 10° E
ALOS 4.5 03:51:22 10° NNE 03:53:16 21° NE 03:53:16 21° NE
NOSS 3-4 (A) 3.8 04:00:50 57° ENE 04:00:50 57° ENE 04:05:59 10° NE
NOSS 3-4 (C) 3.8 04:00:54 57° ENE 04:00:54 57° ENE 04:06:06 10° NE
NOSS 3-2 (C) 3.9 04:00:07 84° NNW 04:00:26 88° NE 04:09:04 10° SE
Milstar 3 Cent rocket 4.2 04:00:16 26° S 04:01:36 28° SSE 04:10:18 10° ESE
CENTAUR R/B 3.1 04:01:35 76° NW 04:02:28 90° NE 04:11:23 10° SSE
ATLAS 2AS CENTAUR R/B 3.1 04:15:30 35° SSW 04:19:16 75° ESE 04:27:09 10° NE
NOSS 3-2 (A) 4.5 04:28:37 45° SW 04:28:37 45° SW 04:35:45 10° S
Atlas Centaur 2 4.0 04:26:40 22° SSW 04:27:58 23° S 04:32:31 10° SE
RESURS DK-1 4.3 04:26:56 11° SSE 04:30:17 28° ESE 04:33:53 10° NE
Lacrosse 5 2.0 04:32:03 69° ENE 04:32:03 69° ENE 04:36:32 10° NE
ATLAS CENTAUR R/B 3.4 04:32:06 19° NE 04:32:22 19° NE 04:35:11 10° E
ADEOS 3.7 04:30:18 10° NNE 04:35:33 71° ESE 04:40:45 10° S
Cosmos 1328 Rocket 4.2 04:35:39 47° NE 04:36:26 54° E 04:40:46 10° SSE
OAO 2 Rocket 4.4 04:37:06 33° S 04:37:14 33° S 04:41:45 10° ESE
Cosmos 2263 Rocket 3.0 04:43:11 36° NNW 04:43:11 36° NNW 04:46:54 10° NNE
Gbstr 26 Del rocket 3.8 04:43:34 38° NE 04:43:34 38° NE 04:46:35 10° E
SJ 16-02 2.5 04:45:52 32° NNE 04:45:52 32° NNE 04:48:18 10° NNE
Meteor 1-4 Rocket 4.2 04:46:48 26° SSE 04:46:48 26° SSE 04:48:27 10° SSE
USA 238 DEB 4.4 04:45:53 38° SW 04:45:53 38° SW 04:52:02 10° S
USA 238 4.4 04:45:55 38° SW 04:45:55 38° SW 04:52:08 10° S
Cosmos 1898 Rocket 4.2 04:46:13 10° S 04:51:22 55° ESE 04:56:35 10° NNE
Meteor 1-26 Rocket 4.2 04:48:59 14° N 04:54:08 87° E 04:59:43 10° S
FENGYUN 3A 3.6 04:55:04 10° N 05:00:25 62° WNW 05:05:43 10° SSW
Cosmos 1408 Rocket 3.6 04:56:36 10° S 05:01:03 78° E 05:05:30 10° N
COSMO-SKYMED 1 2.7 05:00:31 10° SSE 05:04:50 73° ENE 05:07:59 18° N
Cosmos 2181 Rocket 3.8 04:59:08 10° N 05:05:20 76° W 05:11:26 10° S
Cosmos 1709 Rocket 4.1 04:59:33 10° SSW 05:05:42 50° WNW 05:11:55 10° N
Cosmos 1937 Rocket 4.2 05:03:28 10° S 05:08:28 55° ESE 05:13:31 10° NNE
Cosmos 1603 4.5 05:12:26 30° WSW 05:12:26 30° WSW 05:16:36 10° SSW
Meteor 2-3 Rocket 3.7 05:07:23 10° SSW 05:13:00 58° WNW 05:18:43 10° N
CZ-4C R/B 1.9 05:11:05 25° SW 05:14:04 78° NW 05:19:56 10° NE
Lacrosse 4 Rocket 1.8 05:14:32 43° WSW 05:14:32 43° WSW 05:18:37 10° S
Cosmos 1689 Rocket 2.2 05:15:03 10° SSE 05:17:53 68° ENE 05:18:12 60° NNE
FALCON 9 DEB 3.6 05:18:33 42° N 05:18:33 42° N 05:21:05 10° NE
Cosmos 1943 3.9 05:17:53 32° WSW 05:17:59 32° WSW 05:22:58 10° SSW
CZ-4B R/B 3.1 05:14:30 10° NNE 05:19:01 86° E 05:23:24 10° SSW
SAR-Lupe-4 3.4 05:18:08 10° S 05:21:40 68° WSW 05:22:38 44° NW
Aureole 2 Rocket 4.0 05:20:20 10° SSE 05:22:32 26° ESE 05:24:45 10° NE
ATLAS 3B R/B 2.8 05:17:51 19° NW 05:23:10 86° NE 05:30:25 10° SE
Cosmos 1862 3.8 05:21:51 10° S 05:25:50 61° E 05:29:51 10° NNE
Genesis I 3.0 05:24:54 27° SW 05:26:53 73° NW 05:30:44 10° NNE
YAOGAN 6 4.5 05:26:27 10° NNE 05:29:37 32° E 05:32:45 10° SSE
Cosmos 858 Rocket 4.5 05:27:30 10° SSW 05:32:43 89° ESE 05:37:59 10° NNE
deb Chang Zheng 4 3.9 05:28:39 10° N 05:32:45 41° WNW 05:36:50 10° SW
ALOS 3.3 05:28:54 10° N 05:31:44 25° NW 05:31:44 25° NW
Cosmos 990 Rocket 4.0 05:28:56 10° SW 05:34:04 56° WNW 05:39:15 10° NNE
Cosmos 2074 Rocket 3.9 05:29:26 10° SSW 05:35:37 75° W 05:41:51 10° N
Cosmos 923 Rocket 4.5 05:34:01 24° NW 05:36:38 40° WSW 05:41:32 10° S
PSLV R/B 4.4 05:34:43 10° NNE 05:38:33 58° E 05:42:14 10° S
SAR-Lupe-1 4.4 05:35:19 10° S 05:38:43 43° W 05:40:08 28° NW
ASTRO F (AKARI) 4.2 05:37:23 10° NNE 05:40:29 80° ESE 05:43:39 10° S
BREEZE M DEB (TANK) 3.4 05:30:54 10° SW 05:40:51 66° SSE 05:43:58 10° ENE
Cosmos 405 Rocket 2.6 05:37:57 10° S 05:41:38 85° E 05:45:23 10° N
EO 1 Delta rocket 3.8 05:40:54 10° S 05:46:04 82° W 05:50:42 10° N
Cosmos 1812 2.6 05:44:13 10° N 05:48:05 88° W 05:51:55 10° S
Cosmos 2228 Rocket 3.0 05:46:12 10° N 05:50:39 86° W 05:55:01 10° S
Cosmos 1515 Rocket 4.0 05:46:56 10° NNW 05:51:06 40° W 05:55:15 10° SSW
NOSS 3-4 (A) 4.3 05:48:19 20° WNW 05:51:14 28° NW 05:56:40 10° NNE
NOSS 3-4 (C) 4.3 05:48:24 20° WNW 05:51:21 28° NW 05:56:49 10° NNE
PSLV R/B 4.2 05:47:35 10° S 05:51:34 45° W 05:55:32 10° NNW
SL-4 R/B 3.4 05:50:37 16° NW 05:52:23 22° N 05:55:20 10° NE
CENTAUR R/B 4.3 05:48:50 18° WNW 05:52:32 24° WSW 05:59:05 10° SSW
SKYMED 2 4.2 05:49:06 10° SSW 05:53:01 33° W 05:56:36 12° NW
Cosmos 2184 Rocket 4.1 05:46:59 10° SSW 05:53:10 57° WNW 05:59:28 10° N
GPS 2-04 Rocket1 4.3 05:50:40 13° WSW 05:53:25 25° S 05:56:34 10° SE
Cosmos 1151 Rocket 4.4 05:53:56 18° W 05:53:56 18° W 05:56:34 10° SW
Cosmos 1782 3.8 05:52:14 20° NW 05:53:57 26° W 05:57:21 10° SSW
ERS-2 4.1 05:52:47 10° SW 05:53:52 14° WSW 05:53:52 14° WSW
FALCON 9 DEB 4.2 05:56:58 21° NW 05:57:58 25° NNW 06:00:42 10° NE
Cosmos 1844 Rocket 2.8 05:54:13 10° SW 05:59:43 53° WNW 06:05:17 10° NNE
USA 234 3.6 05:53:17 10° NE 05:59:49 69° SE 06:06:19 10° SW
Spot 2 4.5 05:55:48 10° NNE 06:00:59 85° WNW 06:06:01 10° SSW
Cosmos 1680 Rocket 4.4 06:00:25 12° NW 06:04:28 30° W 06:09:01 10° SSW
EXPRESS MD2 4.5 06:03:36 15° NW 06:06:47 53° NNE 06:14:24 10° E
Cosmos 1707 Rocket 4.4 06:03:23 10° N 06:07:39 53° E 06:11:52 10° SSE
COSMOS 2455 2.9 06:01:47 10° SSW 06:07:48 89° ESE 06:13:54 10° NNE
RESURS DK-1 3.3 06:04:43 10° WSW 06:08:17 27° NW 06:11:52 10° N
BREEZE-M (TANK) 4.0 06:00:38 10° SW 06:09:30 49° SSE 06:12:25 10° ENE
MOS 1-B 4.5 06:04:06 10° NNE 06:09:57 85° ESE 06:15:46 10° SSW
ATLAS 2AS CENTAUR R/B 3.7 06:03:51 10° W 06:10:58 34° NW 06:17:58 10° NNE
ATLAS CENTAUR R/B 1.6 06:08:18 13° NW 06:11:25 45° WSW 06:15:13 10° SSE
BREEZE-M DEB 3.5 06:02:56 13° WNW 06:11:36 74° SW 06:14:39 10° SE
Cosmos 1500 Rocket 4.1 06:09:02 10° SW 06:12:58 34° WNW 06:16:55 10° N
NOAA 6 4.0 06:07:54 10° NNE 06:13:02 82° WNW 06:18:09 10° SSW
Cosmos 1844 3.8 06:08:16 10° SW 06:13:38 50° WNW 06:19:04 10° NNE
Lacrosse 5 3.0 06:11:18 13° WNW 06:14:57 26° NNW 06:19:14 10° NNE
H-2A R/B 3.3 06:11:56 10° N 06:15:33 36° WNW 06:19:07 10° SW
Atlas Centaur 2 3.9 06:11:45 10° WSW 06:16:15 21° S 06:20:04 10° SE
Cosmos 372 Rocket 3.9 06:12:03 10° SSW 06:17:07 73° WNW 06:22:14 10° NNE
CZ-4B DEB 4.2 06:12:45 10° N 06:18:12 73° WNW 06:23:39 10° SSW
Cosmos 1437 Rocket 2.6 06:14:28 10° NNW 06:18:13 64° W 06:21:56 10° S
Okean O Rocket 2.0 06:17:18 10° NNE 06:21:45 70° ESE 06:26:11 10° S
USA 81 4.2 06:18:04 10° S 06:23:19 80° E 06:28:37 10° N
PAYLOAD B 4.2 06:19:08 10° NNE 06:24:40 79° WNW 06:30:08 10° SSW
SMAP 3.1 06:20:47 10° NNE 06:25:28 88° ESE 06:30:07 10° SSW
Gbstr 26 Del rocket 3.7 06:26:12 10° WNW 06:29:37 33° SW 06:33:20 10° SSE
ATLAS 5 CENTAUR R/B 2.0 06:26:20 10° SSW 06:30:17 64° ESE 06:34:41 10° NE
Sich 1 3.2 06:29:15 10° SSW 06:33:35 55° W 06:37:58 10° N
Cosmos 2218 Rocket 4.5 06:27:28 10° S 06:33:40 69° E 06:39:51 10° NNE
CZ-2C R/B 2.8 06:29:20 10° SSE 06:34:50 89° ENE 06:40:15 10° NNW
Nadezhda 3 Rocket 4.4 06:30:03 10° NNW 06:35:56 43° W 06:41:44 10° SSW
Cosmos 2366 rocket 4.4 06:31:46 10° S 06:38:02 72° E 06:44:19 10° NNE
AQUARIUS 4.1 06:34:41 10° N 06:39:11 75° WNW 06:43:39 10° SSW
H-2A R/B 2.8 06:36:00 10° N 06:39:34 37° WNW 06:43:06 10° SW
Envisat 3.4 06:34:58 10° N 06:39:45 42° WNW 06:44:31 10° SW
